Погода в Ржевском

Россия / Калининградская область     55°04′56″N   21°44′53″E
темп.,
°C
ветер,
м/с
пор.,
м/с
влажн.,
%
обл.,
%
осадки,
мм/ч
давл.,
гПа
погр.,
м
12 мая, ср
ср1223:00+15юв615715 0.0 1014471
02:00+12вюв514786 0.0 1014352
05:00+10вюв6148072 0.0 1014342
08:00+16юв615775 0.0 1014659
11:00+20юв813665 0.0 10141091
14:00+22юв711645 0.0 10131646
17:00+20вюв796680 0.0 10131155
20:00+15вюв512700 0.0 1013363
13 мая, чт
чт1323:00+11вюв411780 0.0 1013245
02:00+9вюв36883 0.0 101293
05:00+8вюв229015 0.0 101025
08:00+12всв2279100 0.0 1008176
11:00+12св237997 0.1 1007451
14:00+14сз3377100 0.2 1005695
17:00+14зсз2284100 1.9 1003456
20:00+10юв4897100 5.8 1003451
14 мая, пт
пт1423:00+9вюв4997100 3.6 1003343
02:00+9вюв4997100 7.7 1003397
05:00+9вюв4997100 0.4 1002387
08:00+11в469150 0.4 1002404
11:00+14вюв337879 0.2 1002863
14:00+15вюв227472 0.5 1002874
17:00+16юв126791 0.1 10021110
20:00+13юв22865 0.3 100325
15 мая, сб
сб1523:00+10ююв22935 0.0 100425
02:00+8зсз369811 0.1 1004119
05:00+6з369964 0.0 1006162
08:00+9з3591100 0.0 1007400
11:00+12з4671100 0.1 10081204
14:00+14з46686 0.1 10091158
17:00+14зсз346826 0.0 1009697
20:00+10с22855 0.0 100918
16 мая, вс
вс1623:00+8вюв229165 0.0 101020
02:00+10ююв368798 0.0 1009144
05:00+8ююв359438 0.0 101091
08:00+13ю3482100 0.0 1010355
11:00+16ю347469 0.5 1010962
14:00+17ююв347496 2.0 1009951
17:00+17ююв457766 0.6 1008886
20:00+13юв3789100 2.2 1007134